This is the latest recevied weather packets stored in our database for station/object WX6HNX-6. If no packets are shown the sender has not sent any weather packets the latest 10 day(s).
| Time | Temp. | Humidity | Pressure | Rain* | Wind** | Luminosity | Snow |
|---|---|---|---|---|---|---|---|
| 1778085155 | 17.78° C | 68% | 1020.3 hPa | 0 mm | - | - | - |
| 1778084856 | 17.78° C | 68% | 1020.3 hPa | 0 mm | - | - | - |
| 1778081856 | 16.11° C | 75% | 1020.6 hPa | 0 mm | - | - | - |
| 1778076516 | 11.11° C | 81% | 1020.4 hPa | 0 mm | - | - | - |
| 1778076215 | 10.56° C | 81% | 1020.4 hPa | 0 mm | - | - | - |
| 1778075315 | 10° C | 81% | 1020.2 hPa | 0 mm | - | - | - |
| 1778074414 | 9.44° C | 81% | 1020.1 hPa | 0 mm | - | - | - |
| 1778074115 | 9.44° C | 81% | 1020 hPa | 0 mm | - | - | - |
| 1778073340 | 9.44° C | 80% | 1019.9 hPa | 0 mm | - | - | - |
| 1778073040 | 9.44° C | 80% | 1019.8 hPa | 0 mm | - | - | - |
| 1778071667 | 10° C | 80% | 1019.6 hPa | 0 mm | - | - | - |
| 1778071367 | 10° C | 80% | 1019.6 hPa | 0 mm | - | - | - |
| 1778071067 | 10° C | 80% | 1019.6 hPa | 0 mm | - | - | - |
| 1778070766 | 10° C | 80% | 1019.5 hPa | 0 mm | - | - | - |
| 1778069740 | 10° C | 79% | 1019.3 hPa | 0 mm | - | - | - |
| 1778069440 | 10° C | 79% | 1019.4 hPa | 0 mm | - | - | - |
| 1778069140 | 10° C | 79% | 1019.4 hPa | 0 mm | - | - | - |
| 1778068840 | 10° C | 79% | 1019.3 hPa | 0 mm | - | - | - |
| 1778068540 | 10° C | 79% | 1019.3 hPa | 0 mm | - | - | - |
| 1778068243 | 10° C | 79% | 1019.3 hPa | 0 mm | - | - | - |
| 1778067527 | 10° C | 79% | 1019.1 hPa | 0 mm | - | - | - |
| 1778067227 | 10° C | 79% | 1019.2 hPa | 0 mm | - | - | - |
| 1778066928 | 10° C | 79% | 1019 hPa | 0 mm | - | - | - |
| 1778066628 | 10° C | 79% | 1019 hPa | 0 mm | - | - | - |
| 1778066064 | 10° C | 79% | 1018.9 hPa | 0 mm | - | - | - |
* Rain latest hour (hover to see other rain measurements)
** Current wind speed in m/s (hover to see current wind gust speed)